Wind_Speed
11 11 12 12 12 12 12 12 12 13 12 12 13 13 14 14 13 13 13 13 12 12 12 12 12 12 12 11 11 11 12 12 12 12 12 12 13 13 14 14 14 14 14 15
10 11 12 12 12 12 13 13 13 12 12 12 12 13 13 14 14 14 14 14 13 13 13 13 12 12 12 12 12 12 12 12 13 13 13 13 14 14 15 15 15 15 15 16
10 11 12 12 13 13 13 13 12 11 11 12 12 13 14 14 14 14 15 15 15 15 14 14 13 13 13 12 12 13 13 13 13 14 14 15 15 15 16 16 16 16 17 17
11 11 12 13 13 13 13 13 12 11 11 12 12 13 14 14 14 14 14 15 15 16 15 14 14 14 14 13 14 14 14 14 15 15 15 16 16 17 17 18 18 18 18 18
11 11 12 13 13 13 13 13 13 12 12 13 13 15 14 14 15 15 15 16 16 16 15 15 16 15 15 15 15 15 15 15 16 16 17 17 17 17 18 18 19 18 18 18
11 11 12 13 13 13 13 14 13 13 13 14 14 15 15 14 14 15 16 16 16 16 17 17 17 17 16 16 16 16 16 16 17 17 18 18 18 18 18 18 18 18 18 18
11 11 12 13 13 13 13 13 13 14 14 15 15 15 15 15 15 15 16 17 17 17 17 17 18 18 18 18 17 17 17 17 17 17 18 19 19 19 19 19 19 19 19 19
11 12 12 13 13 13 13 14 14 15 15 16 15 15 16 16 16 16 17 17 18 18 18 18 18 19 19 19 18 18 18 18 18 19 20 20 20 19 19 20 20 20 20 20
11 12 13 14 13 13 13 14 14 15 16 16 16 15 16 16 16 16 16 17 17 18 18 18 19 19 19 19 19 18 19 19 20 20 21 22 21 20 20 20 21 20 20 19
12 12 13 14 14 14 14 14 14 15 16 16 16 15 15 16 16 16 17 17 17 17 18 19 19 19 20 20 20 19 20 20 20 20 21 22 21 21 21 21 21 21 20 19
12 13 13 14 14 15 15 15 16 16 16 17 17 16 16 16 16 17 17 17 17 18 18 19 19 20 20 20 21 20 21 21 20 21 22 22 22 23 22 22 22 22 22 21
12 13 13 14 15 15 16 16 16 16 17 17 18 18 17 17 17 18 18 18 18 19 19 19 20 20 21 21 21 21 21 22 22 21 22 23 24 23 23 23 23 23 22 22
13 13 13 14 15 15 16 16 16 16 17 18 18 18 18 19 19 19 19 19 19 19 19 20 20 20 21 21 22 22 22 22 23 23 23 23 23 23 23 23 23 23 22 22
15 15 15 15 16 16 17 17 17 18 18 19 18 19 19 20 21 21 21 20 20 20 19 20 20 21 21 21 22 22 23 23 23 24 24 23 23 23 24 24 24 23 23 23
16 16 16 17 17 17 18 19 19 19 19 19 19 20 20 21 21 21 21 21 21 20 21 20 20 20 21 22 23 24 23 24 24 24 25 24 24 23 24 24 23 23 23 22
17 17 17 17 17 17 18 18 19 19 20 20 20 20 21 21 22 21 21 21 21 21 21 21 21 21 21 22 23 23 23 23 24 24 24 24 24 24 24 23 23 23 23 24
18 17 18 18 19 19 19 18 19 19 20 20 20 20 22 22 22 22 22 22 22 22 22 22 22 21 22 22 22 23 23 23 23 23 24 24 24 24 24 24 24 23 24 24
18 19 20 20 20 21 19 18 18 19 20 20 20 20 22 22 22 22 23 22 22 23 23 22 23 22 22 22 22 22 22 23 23 23 23 24 24 25 25 24 24 24 24 24
19 20 21 21 21 20 20 19 19 20 20 20 20 21 21 22 22 22 23 23 23 23 22 23 22 22 21 21 21 22 22 23 23 23 23 24 24 25 25 25 24 24 24 24
21 21 21 21 22 21 20 19 19 21 20 20 21 21 21 22 22 22 23 23 23 23 23 23 22 22 22 22 22 22 22 23 23 22 22 23 23 24 25 25 25 25 25 25
22 22 22 22 22 22 20 19 20 20 20 21 21 21 22 22 22 23 23 23 24 23 23 22 22 22 22 22 22 22 22 22 23 23 23 23 23 23 24 25 25 25 24 25
22 22 21 22 22 21 20 20 20 20 21 21 21 21 21 22 22 23 22 22 23 24 24 23 23 22 22 21 21 22 22 23 23 24 24 24 24 23 24 25 25 25 25 25
21 22 21 22 21 21 21 20 20 20 21 21 22 22 22 22 22 22 22 22 23 24 24 24 23 22 22 21 21 21 22 24 25 25 25 25 25 25 24 25 26 26 26 26
22 22 22 22 21 21 21 21 21 21 22 22 22 22 22 22 22 22 22 23 23 23 24 24 23 22 22 22 22 23 24 25 26 26 26 26 26 25 25 26 27 26 26 27
23 23 23 23 22 23 23 23 23 22 22 22 22 23 23 23 23 23 22 23 22 23 23 23 23 23 23 23 24 24 25 25 26 27 27 27 27 26 26 26 26 27 27 27
24 24 24 23 23 24 24 24 24 24 24 24 24 24 24 24 23 23 23 23 23 23 24 23 23 23 23 24 24 25 26 26 27 27 27 27 26 26 26 27 26 26 26 26
Wind_Direction
240 239 236 235 236 236 236 236 239 240 241 242 239 240 242 244 245 250 254 256 258 262 263 265 266 269 271 272 272 273 275 276 278 279 279 278 279 281 283 285 284 284 282 281
243 240 239 237 237 240 238 238 242 244 247 248 244 243 243 248 252 253 254 255 260 262 262 262 265 267 269 271 273 274 278 280 279 280 279 279 281 282 283 284 284 284 284 283
245 243 241 240 240 242 241 240 245 245 246 248 249 246 246 250 253 254 256 258 262 262 261 262 263 265 269 271 273 275 279 282 283 281 281 282 285 285 285 283 283 283 283 282
245 243 242 243 242 244 243 243 245 245 246 250 253 252 251 252 253 256 258 260 261 261 261 263 266 268 271 273 276 278 280 282 284 286 287 286 287 287 286 284 283 284 284 283
246 245 246 245 243 244 243 244 247 248 249 254 255 256 254 255 255 257 259 261 262 261 262 263 266 266 269 273 275 276 278 281 283 286 289 289 289 289 288 286 284 283 284 283
249 250 250 248 245 244 244 246 248 248 251 256 256 257 257 256 257 257 258 261 262 261 261 263 264 265 267 270 273 275 277 281 284 287 289 290 291 291 291 290 287 285 285 284
251 251 250 248 247 244 244 246 250 250 252 256 257 258 261 261 261 260 260 262 261 259 260 261 263 266 269 270 272 274 278 281 285 286 287 289 289 290 290 290 288 286 285 284
254 254 252 249 248 247 246 248 250 255 259 261 260 260 263 266 266 265 265 264 262 261 261 263 263 265 268 271 273 276 279 281 282 284 284 287 288 288 289 288 288 287 285 283
260 259 254 253 249 248 247 247 253 259 264 266 265 265 264 265 266 267 269 268 266 262 261 261 262 264 268 271 273 276 277 279 282 283 284 286 288 289 288 288 288 287 286 282
263 262 255 252 250 249 251 252 255 261 266 269 268 269 269 266 269 271 271 272 270 265 261 261 262 264 268 271 272 273 276 278 281 282 282 283 285 286 288 289 289 286 285 281
263 261 256 254 254 254 253 256 259 262 263 267 270 270 271 271 271 271 271 270 269 267 264 263 264 265 268 270 270 272 274 276 279 281 281 283 285 285 286 287 288 286 283 281
260 260 258 257 257 257 256 258 261 264 266 269 272 272 272 273 274 272 270 270 268 267 267 268 267 269 269 270 271 273 275 277 278 281 282 282 284 284 284 285 285 284 283 283
261 261 261 261 261 259 258 258 261 264 267 271 273 275 275 276 275 274 273 273 272 269 269 269 269 270 270 269 270 272 275 278 279 281 283 281 281 282 283 283 284 284 283 284
259 261 262 264 263 263 262 260 260 263 268 270 273 274 275 275 276 277 276 276 275 272 270 269 269 269 269 269 270 273 274 276 277 279 281 281 281 282 282 281 282 283 283 286
263 264 266 265 264 262 263 264 264 267 269 272 273 274 276 277 278 277 277 276 274 272 272 271 270 268 269 271 272 273 274 274 275 277 279 279 280 281 281 280 280 281 282 284
267 267 268 265 265 265 266 267 267 270 272 274 274 275 276 279 279 278 276 275 274 274 273 272 270 269 269 271 273 274 273 274 275 276 278 278 279 281 282 281 280 280 282 284
269 270 271 268 267 268 267 270 271 272 274 276 276 276 275 278 280 279 278 277 276 276 276 274 272 269 271 273 274 275 276 276 277 278 278 277 278 279 279 281 280 281 281 283
273 273 273 271 268 268 271 273 275 275 276 278 278 277 277 278 278 277 276 277 276 276 275 272 271 270 270 273 276 277 278 277 278 279 280 279 279 279 278 280 280 279 280 281
276 276 275 274 272 273 273 274 275 277 277 279 280 278 278 278 277 277 277 277 277 276 275 273 271 270 272 274 277 277 278 278 278 279 280 280 279 277 277 279 280 279 281 283
275 276 276 274 275 275 275 276 278 279 279 280 281 280 279 279 279 278 278 279 279 278 277 276 273 271 272 275 276 276 279 279 278 278 279 281 280 277 277 279 280 280 281 283
276 276 275 275 275 275 275 276 277 279 282 282 282 282 281 281 282 282 280 279 279 280 279 277 275 272 272 274 275 276 278 280 279 279 278 281 282 281 279 280 281 281 281 283
275 276 275 276 274 274 274 276 277 279 281 283 283 283 282 282 282 283 282 281 280 280 279 278 276 273 274 274 274 276 278 280 280 280 281 282 284 282 280 280 281 281 280 282
273 273 274 275 276 273 273 275 277 278 280 282 283 283 283 283 284 283 282 282 282 280 279 277 275 274 273 273 273 274 276 278 280 280 281 283 285 283 281 282 282 281 281 283
271 272 273 274 274 272 271 272 275 277 279 281 283 283 284 284 284 284 283 283 282 281 280 276 274 273 272 272 273 276 277 278 279 280 281 284 285 284 283 284 282 281 282 283
271 272 272 271 271 271 270 272 275 277 279 280 281 282 284 285 285 284 284 283 282 281 279 276 273 271 271 271 274 277 278 278 280 281 281 284 284 283 282 283 283 282 282 283
271 272 273 272 271 271 273 274 274 275 278 280 281 282 283 283 284 284 284 283 282 281 279 276 273 272 272 272 273 275 277 279 281 282 284 285 285 284 284 285 284 284 284 284
Height
5835 5837 5837 5839 5840 5841 5842 5843 5844 5845 5845 5847 5848 5849 5849 5850 5851 5851 5852 5852 5852 5852 5852 5852 5852 5851 5851 5851 5850 5850 5849 5848 5848 5847 5846 5845 5844 5844 5842 5841 5840 5839 5838 5836
5833 5834 5835 5836 5837 5838 5839 5841 5842 5842 5843 5844 5844 5845 5846 5846 5847 5848 5849 5849 5849 5849 5849 5849 5849 5849 5848 5848 5848 5847 5847 5846 5845 5844 5843 5842 5841 5840 5839 5838 5836 5835 5834 5832
5830 5832 5832 5833 5834 5835 5837 5838 5839 5840 5840 5840 5842 5843 5843 5843 5844 5845 5845 5845 5846 5846 5846 5846 5846 5846 5845 5845 5844 5844 5843 5843 5842 5841 5840 5839 5838 5837 5835 5834 5832 5831 5829 5828
5827 5828 5829 5830 5831 5832 5834 5835 5836 5836 5837 5838 5839 5839 5840 5840 5841 5841 5841 5842 5842 5842 5842 5842 5842 5842 5842 5841 5841 5840 5840 5839 5838 5837 5836 5835 5834 5832 5831 5829 5828 5826 5825 5823
5824 5825 5826 5827 5828 5829 5831 5832 5833 5833 5834 5835 5836 5836 5837 5837 5837 5837 5837 5837 5838 5838 5838 5838 5838 5838 5838 5838 5837 5837 5836 5835 5834 5833 5832 5831 5829 5828 5826 5824 5823 5821 5820 5818
5821 5822 5823 5824 5825 5826 5827 5829 5830 5830 5831 5832 5833 5833 5833 5833 5833 5833 5833 5833 5833 5833 5834 5834 5834 5834 5834 5834 5833 5833 5832 5831 5830 5829 5828 5826 5825 5823 5821 5819 5818 5816 5815 5814
5819 5819 5820 5821 5821 5823 5824 5826 5826 5827 5827 5828 5828 5828 5829 5829 5829 5829 5829 5829 5828 5828 5829 5829 5829 5829 5829 5829 5828 5828 5828 5827 5825 5824 5823 5822 5820 5818 5817 5815 5813 5812 5810 5809
5816 5817 5817 5817 5819 5820 5821 5822 5824 5824 5824 5824 5824 5824 5825 5824 5824 5824 5824 5823 5823 5823 5823 5824 5824 5824 5824 5824 5824 5823 5823 5822 5821 5820 5818 5817 5815 5814 5812 5810 5808 5807 5805 5804
5813 5814 5814 5814 5815 5817 5817 5818 5819 5820 5819 5819 5819 5820 5820 5819 5819 5819 5819 5818 5818 5818 5818 5818 5818 5818 5818 5818 5818 5818 5817 5817 5816 5814 5813 5812 5810 5808 5806 5805 5803 5802 5800 5798
5809 5810 5810 5811 5812 5813 5814 5814 5815 5815 5815 5815 5815 5815 5815 5814 5814 5814 5814 5813 5813 5812 5812 5812 5812 5813 5813 5813 5812 5812 5812 5811 5810 5809 5807 5806 5805 5803 5801 5800 5798 5796 5795 5793
5805 5806 5807 5807 5808 5809 5810 5810 5810 5810 5811 5811 5811 5813 5810 5810 5809 5809 5808 5808 5807 5807 5806 5806 5807 5807 5807 5806 5806 5806 5805 5805 5804 5803 5801 5800 5799 5797 5796 5794 5793 5791 5789 5788
5801 5802 5802 5803 5804 5804 5805 5805 5806 5806 5806 5806 5805 5809 5805 5805 5804 5803 5803 5802 5802 5801 5801 5801 5801 5801 5801 5800 5800 5800 5799 5798 5798 5797 5795 5794 5793 5791 5790 5788 5787 5785 5784 5782
5797 5798 5798 5799 5801 5800 5799 5800 5800 5801 5801 5801 5801 5804 5800 5799 5798 5798 5797 5797 5796 5796 5795 5795 5795 5794 5794 5794 5793 5793 5793 5792 5791 5790 5789 5787 5786 5785 5784 5783 5781 5780 5778 5776
5793 5793 5795 5795 5795 5795 5795 5795 5795 5795 5795 5796 5796 5796 5795 5793 5792 5792 5791 5791 5790 5789 5789 5789 5788 5788 5788 5787 5786 5786 5786 5785 5784 5783 5782 5781 5780 5779 5777 5776 5775 5773 5772 5770
5788 5789 5789 5789 5789 5789 5790 5790 5790 5790 5790 5790 5791 5790 5789 5788 5787 5786 5785 5784 5784 5783 5783 5783 5782 5782 5781 5781 5780 5780 5779 5779 5778 5777 5775 5774 5773 5772 5771 5770 5768 5767 5766 5764
5783 5784 5784 5784 5784 5784 5784 5785 5784 5784 5784 5784 5784 5784 5782 5782 5781 5780 5779 5778 5777 5777 5776 5776 5776 5775 5775 5774 5774 5773 5772 5772 5771 5770 5769 5768 5766 5765 5764 5763 5762 5761 5760 5759
5778 5779 5779 5779 5779 5778 5779 5780 5779 5779 5778 5778 5778 5778 5776 5775 5774 5773 5772 5772 5771 5770 5770 5769 5769 5769 5768 5768 5767 5767 5766 5765 5764 5763 5762 5761 5760 5759 5758 5757 5756 5755 5754 5752
5773 5773 5772 5773 5773 5773 5776 5774 5773 5773 5772 5772 5771 5771 5770 5769 5768 5767 5766 5765 5764 5764 5763 5762 5762 5762 5762 5761 5761 5760 5759 5759 5758 5757 5756 5755 5754 5753 5752 5750 5750 5748 5747 5746
5767 5767 5766 5766 5766 5767 5769 5768 5767 5766 5766 5766 5765 5764 5763 5762 5761 5760 5759 5758 5757 5757 5756 5755 5755 5755 5755 5755 5754 5754 5753 5752 5751 5750 5750 5749 5747 5746 5745 5744 5743 5742 5741 5739
5761 5760 5760 5760 5759 5760 5764 5762 5760 5761 5760 5759 5758 5757 5756 5755 5755 5754 5752 5751 5750 5750 5749 5748 5748 5748 5748 5748 5747 5747 5746 5745 5745 5744 5743 5742 5740 5739 5738 5737 5736 5735 5734 5732
5754 5754 5754 5753 5753 5754 5756 5755 5754 5755 5755 5752 5751 5750 5749 5748 5748 5747 5745 5744 5743 5742 5741 5741 5741 5741 5741 5741 5741 5740 5740 5739 5738 5737 5736 5735 5734 5732 5731 5730 5729 5728 5726 5725
5747 5747 5747 5747 5747 5750 5749 5748 5748 5748 5746 5745 5744 5743 5742 5741 5740 5739 5738 5737 5736 5735 5734 5733 5733 5734 5734 5734 5734 5734 5733 5733 5731 5730 5729 5728 5727 5726 5725 5723 5722 5720 5719 5718
5741 5741 5741 5741 5743 5742 5741 5740 5740 5739 5739 5738 5737 5736 5735 5734 5733 5732 5731 5730 5729 5728 5727 5726 5726 5726 5727 5727 5727 5727 5726 5726 5725 5724 5723 5721 5720 5719 5717 5716 5715 5713 5712 5710
5734 5734 5733 5734 5735 5734 5734 5733 5733 5732 5731 5731 5730 5729 5728 5727 5726 5725 5724 5723 5721 5720 5719 5719 5719 5719 5719 5719 5719 5719 5719 5718 5718 5717 5715 5714 5712 5711 5709 5708 5707 5705 5704 5702
5727 5727 5726 5727 5728 5727 5727 5726 5726 5725 5724 5724 5722 5721 5720 5720 5719 5718 5717 5715 5714 5713 5712 5711 5711 5712 5712 5712 5712 5712 5711 5711 5710 5709 5708 5706 5705 5703 5702 5700 5698 5697 5696 5694
5720 5719 5719 5720 5720 5719 5720 5719 5719 5718 5717 5716 5715 5714 5713 5712 5711 5710 5709 5708 5707 5705 5705 5704 5704 5704 5704 5704 5704 5704 5704 5703 5702 5701 5699 5698 5697 5695 5694 5692 5690 5689 5687 5686